This is the latest recevied weather packets stored in our database for station/object K5NWZ. If no packets are shown the sender has not sent any weather packets the latest 10 day(s).
| Time | Temp. | Humidity | Pressure | Rain* | Wind** | Luminosity | Snow |
|---|---|---|---|---|---|---|---|
| 1777603232 | 6.67° C | 64% | 1029.5 hPa | 0 mm | - | 0 W/m² | - |
| 1777602928 | 6.67° C | 63% | 1029.3 hPa | 0 mm | - | 0 W/m² | - |
| 1777602624 | 6.67° C | 63% | 1029.3 hPa | 0 mm | - | 0 W/m² | - |
| 1777602319 | 6.67° C | 63% | 1029.4 hPa | 0 mm | - | 0 W/m² | - |
| 1777602015 | 6.67° C | 62% | 1029.4 hPa | 0 mm | - | 0 W/m² | - |
| 1777601710 | 7.22° C | 62% | 1029.1 hPa | 0 mm | - | 0 W/m² | - |
| 1777601406 | 7.22° C | 61% | 1029.1 hPa | 0 mm | - | 0 W/m² | - |
| 1777601101 | 7.78° C | 59% | 1029.1 hPa | 0 mm | - | 1 W/m² | - |
| 1777600800 | 7.78° C | 59% | 1028.9 hPa | 0 mm | - | 2 W/m² | - |
| 1777600495 | 7.78° C | 58% | 1028.9 hPa | 0 mm | - | 3 W/m² | - |
| 1777600190 | 7.78° C | 57% | 1029 hPa | 0 mm | - | 6 W/m² | - |
| 1777599887 | 8.33° C | 56% | 1028.9 hPa | 0 mm | - | 9 W/m² | - |
| 1777599583 | 8.33° C | 56% | 1029 hPa | 0 mm | - | 11 W/m² | - |
| 1777599280 | 8.33° C | 57% | 1028.7 hPa | 0 mm | - | 14 W/m² | - |
| 1777598976 | 8.33° C | 56% | 1028.8 hPa | 0 mm | - | 17 W/m² | - |
| 1777598673 | 8.89° C | 55% | 1028.9 hPa | 0 mm | - | 21 W/m² | - |
| 1777598369 | 8.89° C | 54% | 1028.7 hPa | 0 mm | - | 26 W/m² | - |
| 1777598068 | 8.89° C | 53% | 1028.9 hPa | 0 mm | - | 31 W/m² | - |
| 1777597767 | 9.44° C | 53% | 1028.7 hPa | 0 mm | - | 38 W/m² | - |
| 1777597462 | 9.44° C | 53% | 1028.7 hPa | 0 mm | - | 40 W/m² | - |
| 1777597158 | 9.44° C | 52% | 1028.9 hPa | 0 mm | - | 39 W/m² | - |
| 1777596854 | 10° C | 50% | 1028.8 hPa | 0 mm | - | 40 W/m² | - |
| 1777596550 | 9.44° C | 51% | 1028.7 hPa | 0 mm | - | 47 W/m² | - |
| 1777596248 | 9.44° C | 51% | 1028.7 hPa | 0 mm | - | 58 W/m² | - |
| 1777595945 | 9.44° C | 51% | 1028.7 hPa | 0 mm | - | 64 W/m² | - |
* Rain latest hour (hover to see other rain measurements)
** Current wind speed in m/s (hover to see current wind gust speed)